Wind_Speed
21 21 23 25 25 23 19 16 17 16 13 12 13 14 12 11 13 12 9 8 8 7 7 7 7 6 6 6 5 4 4 4 5 5 6 6 7 8 8 8 8 10 11 10 10 10 10 11 10 9 9 9 9 10 10 10 10 10 9 9 8 7 6 6 7 6 5 3 3 4 5 7 8 9 10 10 11 11 11 11 12 13 14 12 11
20 21 22 24 23 19 17 16 17 16 14 14 16 16 13 11 13 12 10 9 9 9 8 7 7 7 6 6 5 5 4 3 4 4 4 4 5 5 6 6 6 7 9 9 9 9 9 9 9 9 8 8 8 9 9 9 9 8 8 8 8 7 6 6 6 6 6 4 3 3 5 6 6 8 10 11 12 11 10 11 13 15 16 16 12
18 20 21 22 20 16 15 16 17 15 14 15 18 17 13 10 10 11 10 10 10 10 9 8 7 6 6 5 5 4 4 4 4 4 4 3 3 3 4 4 4 5 6 7 7 7 6 6 7 8 8 8 8 8 9 8 7 7 8 8 8 8 7 6 6 6 6 5 4 2 3 5 5 6 9 10 12 12 11 12 14 15 18 19 15
16 18 18 19 17 15 14 15 16 16 15 16 18 17 13 10 9 9 11 11 11 11 10 10 9 8 7 5 4 4 3 4 4 4 4 3 3 3 4 4 4 4 5 5 5 5 5 5 5 6 7 7 7 7 8 8 7 7 8 8 8 7 7 7 6 6 5 5 4 3 2 3 4 6 8 9 9 11 12 13 13 15 19 22 20
13 15 17 18 17 16 14 14 16 18 17 16 17 16 13 11 10 9 11 12 11 11 11 11 10 8 7 6 5 3 3 3 3 4 4 4 4 5 5 5 6 6 6 6 6 6 6 6 6 6 7 7 7 7 7 7 7 7 7 7 6 5 6 6 6 6 5 5 4 3 2 2 2 5 8 9 7 8 10 11 11 14 20 23 22
10 12 15 17 18 18 17 16 16 17 17 16 17 15 13 12 11 10 11 12 12 11 10 10 8 7 6 5 5 4 3 3 3 3 3 4 4 5 5 6 7 7 8 8 8 8 8 8 9 9 8 8 7 6 7 7 7 6 6 6 5 4 4 5 5 5 5 4 3 3 2 2 3 4 8 11 9 8 11 11 8 10 16 22 22
9 11 13 15 17 18 18 17 16 17 16 16 16 16 15 13 13 12 12 12 12 11 10 9 8 6 5 5 5 4 3 2 3 3 3 4 5 5 6 7 8 9 9 9 10 10 11 12 12 11 10 10 10 10 9 9 8 7 6 5 5 4 4 4 4 4 4 3 2 2 1 2 4 4 7 11 8 7 12 14 11 11 15 19 19
8 10 12 13 15 16 16 16 15 15 14 15 16 16 16 15 15 15 14 14 13 13 12 10 10 8 6 5 6 6 5 5 4 4 5 7 7 8 9 9 10 11 12 12 12 12 13 14 13 12 13 13 14 15 14 11 10 9 8 6 5 4 3 3 3 3 2 2 1 2 1 1 3 5 6 8 6 7 11 13 14 15 17 19 15
7 9 11 12 14 15 15 14 13 13 13 14 15 15 15 16 17 18 17 17 18 18 17 16 15 13 11 9 9 8 8 8 7 7 9 10 11 11 13 13 14 15 15 15 15 14 14 16 15 15 15 15 15 17 16 13 11 10 9 7 6 4 4 3 2 1 1 1 2 3 4 3 4 5 6 6 7 9 10 11 12 13 17 18 14
7 8 9 11 12 13 13 12 12 13 13 13 14 15 15 17 18 20 20 21 22 21 20 19 18 16 15 14 13 10 9 10 9 9 12 14 14 14 15 16 15 15 16 16 16 15 15 17 17 16 16 16 16 17 16 14 13 11 9 8 7 5 5 4 2 0 1 2 2 4 6 6 5 6 6 6 8 9 9 10 12 13 14 16 13
5 8 9 11 12 12 12 12 13 14 14 15 15 16 17 19 20 21 22 22 22 21 20 20 19 19 19 19 18 15 11 10 9 10 12 14 15 14 15 15 15 15 16 16 16 15 14 15 15 15 15 15 14 14 14 15 15 13 10 8 7 6 5 4 2 1 1 2 1 2 5 6 5 6 6 6 7 9 9 10 11 12 12 13 13
5 6 8 10 11 11 12 12 13 15 15 15 15 15 17 17 17 19 22 22 21 20 20 20 20 21 21 22 22 21 16 12 12 14 15 16 15 15 15 16 16 16 16 16 15 13 12 13 14 13 12 11 11 11 12 14 16 15 12 10 9 7 5 4 3 2 3 3 3 3 4 6 6 5 6 7 8 10 11 10 9 10 10 11 12
9 6 6 8 9 10 11 11 12 14 13 12 11 11 12 12 12 14 18 19 18 17 19 22 21 21 22 24 25 24 21 19 17 16 16 15 14 13 13 13 13 14 15 15 14 12 12 11 11 11 9 8 7 8 10 14 16 15 13 12 10 7 5 4 3 4 5 4 4 4 5 6 5 5 6 9 10 10 11 11 10 10 11 11 13
15 12 8 6 7 8 9 10 11 13 13 12 11 10 9 9 10 12 14 14 14 13 15 19 20 20 21 21 21 21 19 16 14 14 13 12 10 10 9 9 10 11 12 12 12 11 10 9 7 6 6 6 5 6 9 14 17 17 14 13 10 7 5 4 5 5 5 5 4 4 5 6 5 6 9 11 10 9 10 11 12 12 13 15 17
15 14 13 9 6 6 7 8 9 10 12 13 14 14 12 11 12 14 14 13 12 12 13 15 17 18 17 17 17 15 12 10 11 12 11 10 8 6 6 7 8 9 9 9 8 7 6 6 5 4 4 4 4 5 10 16 18 17 14 11 8 5 4 5 5 4 4 5 5 5 5 7 7 7 10 10 9 10 11 13 14 15 16 17 17
12 12 13 12 10 8 6 5 6 7 8 10 13 14 13 13 13 14 15 13 12 13 14 14 15 15 16 16 15 12 10 11 13 13 12 11 8 5 5 6 6 6 5 4 3 3 2 3 3 3 3 3 3 5 11 16 16 14 11 8 6 5 4 4 4 4 5 5 5 5 6 7 8 9 10 10 10 10 11 12 13 13 13 14 14
11 11 12 12 12 11 8 5 5 5 5 6 9 10 10 10 10 10 11 11 11 12 13 14 14 14 14 14 12 11 13 15 15 14 13 11 8 5 5 5 5 5 4 5 5 5 5 4 4 3 3 4 6 9 11 12 11 9 8 6 5 5 4 4 4 5 6 5 5 6 7 8 9 10 10 11 11 11 11 11 11 11 12 14 14
12 12 13 13 13 12 10 7 5 6 6 7 8 9 9 9 9 9 10 10 10 11 11 11 11 10 10 9 10 12 15 15 14 13 13 11 8 6 6 6 7 7 7 7 7 6 7 6 6 5 6 8 9 10 9 8 7 6 6 5 5 4 4 4 4 5 5 5 6 7 8 9 10 11 11 13 14 13 12 11 12 12 13 13 14
14 14 14 15 14 12 11 9 7 6 7 8 9 11 11 10 10 9 10 11 11 11 11 12 13 12 11 11 11 12 14 14 13 12 12 11 9 8 8 9 9 9 9 10 10 9 9 9 8 7 8 9 9 9 8 6 5 5 4 4 5 4 4 4 3 2 3 4 6 8 9 10 12 13 14 15 16 15 13 12 12 12 13 13 14
16 16 16 16 15 14 13 11 10 9 8 9 11 13 12 11 11 11 11 13 13 13 14 14 15 14 13 12 11 11 11 11 12 12 12 11 10 9 10 11 12 12 13 13 13 13 12 11 10 9 8 9 8 7 6 5 3 3 3 3 4 4 4 4 3 3 4 5 7 9 10 11 12 13 13 13 14 13 12 12 12 12 13 15 15
16 17 17 17 16 15 14 13 13 12 11 11 13 14 13 13 13 13 13 14 14 15 15 15 15 15 14 13 12 11 10 11 12 12 12 12 11 11 11 11 13 14 14 14 13 14 13 12 11 9 7 7 7 6 5 4 3 3 4 4 4 4 3 2 4 5 6 7 9 10 10 10 11 11 11 11 11 11 11 12 12 13 14 16 17
17 17 17 17 17 16 15 14 13 14 13 12 13 15 16 16 16 15 15 16 16 17 17 17 17 17 15 14 14 13 12 12 12 13 13 13 12 12 11 11 11 11 13 14 13 13 13 13 11 10 8 6 6 5 4 4 3 3 3 3 2 2 1 2 4 5 5 6 8 9 9 9 10 10 10 10 10 10 11 12 13 14 15 16 17
18 19 19 18 17 17 16 15 14 13 13 12 12 15 18 19 19 19 19 19 20 20 20 19 17 17 16 15 14 13 13 13 12 12 12 13 13 12 11 10 10 10 11 13 14 14 14 13 11 10 8 7 6 5 4 3 2 2 1 0 2 3 4 4 5 6 6 7 8 9 9 9 10 10 10 10 11 11 12 12 13 14 15 16 16
21 20 19 19 19 18 17 16 16 15 14 12 11 13 18 21 21 22 22 22 23 23 22 21 19 18 17 16 14 13 13 13 13 12 12 12 13 12 11 11 11 10 11 13 14 14 14 13 12 10 8 7 6 4 3 2 2 1 2 3 5 6 6 5 6 7 7 8 8 9 9 9 9 10 11 11 12 12 12 12 12 12 13 14 15
21 20 19 19 19 19 18 17 17 17 17 16 13 12 14 19 21 22 22 23 24 24 22 21 19 17 16 15 14 14 14 14 14 13 13 12 12 11 11 12 11 10 10 12 14 14 13 12 11 9 7 6 5 4 3 2 1 2 4 5 6 7 6 6 6 7 7 7 8 9 9 10 11 12 13 12 12 12 12 12 12 12 13 14 15
19 20 20 19 19 19 19 18 18 17 17 18 17 15 14 16 17 18 17 17 20 23 24 22 19 17 15 15 15 14 15 15 15 15 14 14 13 13 13 13 12 10 11 13 13 13 12 11 10 9 7 5 4 3 2 1 2 4 5 6 6 5 5 5 5 6 6 7 8 9 11 13 13 13 12 12 12 13 13 13 14 14 13 14 15
19 20 20 20 19 18 17 18 19 18 17 17 17 18 19 17 16 19 21 19 17 18 20 21 21 19 17 17 16 16 16 16 16 17 17 16 16 15 14 14 14 13 14 15 15 13 12 11 9 8 6 5 4 2 1 1 2 3 4 4 4 3 3 4 5 6 6 7 9 11 13 13 13 13 12 13 13 14 13 13 14 14 14 15 16
19 20 20 19 19 18 17 18 19 18 17 17 16 16 20 21 19 21 24 22 18 15 15 17 19 18 16 16 16 17 18 18 18 18 18 18 18 18 17 16 16 16 16 17 16 14 13 11 10 8 7 6 4 3 2 1 1 2 2 2 2 3 4 6 6 6 6 7 9 12 13 13 13 13 13 13 14 14 14 14 14 14 14 14 15
20 20 20 18 19 19 19 19 19 17 16 16 15 14 17 22 23 23 22 20 19 18 18 19 18 14 13 16 18 20 21 20 19 18 17 17 17 17 18 18 17 17 16 15 15 15 14 12 11 9 7 6 5 3 2 2 1 1 1 2 2 2 4 5 5 6 7 8 9 11 12 12 13 13 13 13 14 15 14 14 14 14 14 14 15
21 21 19 18 18 19 18 18 19 18 17 17 16 14 14 17 22 26 27 25 23 21 21 23 23 23 24 27 26 25 24 22 21 20 19 17 16 15 16 16 16 16 15 14 14 15 14 11 9 8 7 5 4 3 2 2 2 1 1 2 2 3 5 5 6 7 9 9 9 10 12 12 13 13 14 14 15 15 14 14 14 14 14 15 16
21 21 20 19 19 18 17 17 17 17 17 17 17 15 13 12 14 18 22 24 26 27 26 26 26 27 29 30 29 27 24 22 22 23 22 20 19 18 17 16 15 15 15 15 14 14 12 10 8 7 6 5 4 3 3 2 2 1 1 2 3 5 6 6 7 9 10 9 9 10 12 13 13 13 14 14 15 15 15 14 14 14 14 15 16
22 21 21 21 20 18 18 17 16 15 16 16 15 15 15 13 12 12 12 12 15 19 21 23 25 24 24 26 29 28 24 22 23 24 23 22 21 19 19 18 17 16 16 15 14 13 10 9 8 7 6 4 4 3 3 2 1 1 2 3 5 6 7 8 10 10 10 9 9 10 12 13 13 13 14 14 14 15 15 15 15 14 15 15 15
24 23 21 21 21 20 18 17 15 15 15 15 15 15 16 17 17 17 13 10 10 12 13 15 19 19 18 21 26 27 24 22 24 25 24 23 21 20 19 18 18 18 17 14 12 11 9 8 7 7 5 4 4 3 2 1 0 2 3 4 6 7 8 10 11 10 9 9 10 11 12 13 13 13 13 14 14 15 16 16 15 15 14 15 15
25 25 23 21 20 20 19 17 16 14 14 14 15 16 16 18 20 20 16 13 13 14 14 13 14 16 17 18 22 24 23 22 24 26 25 23 23 22 21 21 20 19 16 12 10 10 10 8 7 6 5 5 4 3 2 1 1 2 4 5 7 8 9 10 10 9 9 9 10 12 13 13 12 13 13 14 15 16 16 16 15 15 14 15 16
24 25 26 25 23 21 19 18 16 15 14 14 15 17 18 19 20 20 18 17 16 15 12 10 10 12 14 14 17 20 20 21 25 27 26 26 25 24 24 24 21 18 15 11 10 10 10 8 7 7 5 5 4 3 2 1 2 3 4 6 8 10 10 10 9 9 10 9 11 13 13 12 12 13 13 14 15 16 16 16 15 15 15 15 16
23 23 23 24 25 23 20 19 18 16 15 14 14 17 19 20 21 20 18 18 17 15 11 10 10 10 12 14 15 17 19 23 27 29 28 28 27 26 25 22 19 16 15 12 11 11 9 8 7 6 5 5 4 3 1 1 2 4 5 8 9 10 10 9 9 10 11 11 11 12 12 12 13 13 13 14 15 15 15 15 15 15 15 16 17
22 22 20 19 20 20 19 18 18 18 17 15 15 17 20 21 21 20 15 13 16 16 14 14 15 16 17 18 18 19 22 26 28 28 27 27 26 25 24 22 20 18 16 14 13 11 9 8 7 6 5 5 4 2 1 1 3 4 7 10 11 10 10 10 10 12 13 12 12 12 12 13 14 13 13 14 15 15 15 14 15 15 16 17 17
21 22 21 18 18 17 16 17 17 17 17 17 16 16 18 19 20 19 15 12 16 18 18 19 20 20 21 23 23 24 28 29 28 28 28 28 26 24 22 22 21 19 17 15 13 11 9 8 7 6 5 5 3 2 0 3 4 6 9 11 11 10 10 10 11 13 14 12 11 12 13 14 14 13 13 13 14 15 15 15 15 16 16 16 16
18 19 20 19 18 17 15 14 14 14 15 14 13 13 16 17 17 16 14 14 16 19 20 20 20 20 25 29 29 30 31 30 30 31 30 26 24 23 23 22 20 18 17 16 14 11 9 8 7 6 6 5 3 1 2 3 5 7 10 11 10 9 9 10 10 12 13 12 11 13 13 14 14 13 13 13 13 14 14 15 15 16 16 16 16
10 13 15 17 18 17 14 13 12 12 12 12 11 12 15 16 16 15 15 16 17 17 17 16 15 17 25 32 35 36 35 30 29 31 29 25 23 23 22 21 19 18 17 16 13 11 9 8 7 7 6 4 2 0 3 5 7 9 10 10 9 9 10 10 11 13 14 13 12 12 13 13 13 13 13 13 13 14 14 14 15 15 16 16 17
4 7 10 13 14 13 11 10 11 11 11 12 12 12 13 14 14 14 13 13 13 13 12 12 12 17 24 29 31 33 34 31 28 28 28 27 26 24 21 19 18 17 16 15 14 11 9 8 8 7 6 4 1 1 4 6 7 9 9 10 10 11 11 11 13 15 15 13 11 11 13 14 14 14 14 14 14 14 14 14 14 15 16 16 16
1 2 4 7 9 8 7 7 8 8 10 12 12 12 13 13 12 11 11 10 10 10 11 12 12 15 21 24 21 20 23 26 26 27 28 27 25 23 20 19 17 15 14 14 13 11 9 8 8 7 5 3 1 2 4 6 8 9 10 11 12 13 12 12 13 16 16 13 11 13 15 17 16 14 13 13 14 14 14 14 14 14 15 15 15
4 3 1 2 5 5 4 4 5 7 10 12 11 11 11 10 10 10 10 10 10 10 11 12 12 14 19 22 18 15 19 25 28 28 27 25 23 21 20 18 16 14 14 13 12 10 8 8 8 7 5 3 1 3 5 6 8 10 12 13 13 13 12 13 14 16 17 16 16 17 18 18 16 14 13 13 13 14 14 14 14 14 15 15 14
7 5 4 4 5 5 5 5 5 7 9 10 9 9 8 8 8 9 9 10 11 11 11 13 16 19 22 21 18 19 24 28 29 27 24 22 21 21 20 18 16 15 14 12 10 9 8 7 7 6 5 2 2 4 5 7 9 10 13 14 13 12 12 13 14 17 18 18 18 19 18 16 15 14 13 13 13 13 14 14 14 15 15 15 14
9 8 7 7 6 6 7 7 7 8 9 9 9 8 8 7 7 8 9 11 13 14 15 17 20 22 23 22 22 25 28 29 27 24 23 22 22 21 20 18 16 14 12 11 9 8 7 6 6 5 4 2 3 4 6 7 8 10 12 13 13 12 12 13 14 16 18 19 19 19 18 16 15 14 14 14 14 14 14 14 14 14 15 15 14
11 11 11 10 9 9 8 8 8 8 9 9 10 9 9 9 9 9 10 13 15 17 18 21 23 24 24 24 26 27 27 25 23 21 21 21 22 21 19 17 15 13 11 10 8 7 6 5 4 4 3 2 3 4 5 6 8 9 11 13 13 13 13 13 14 16 17 18 18 18 19 18 16 14 14 14 14 13 14 14 14 14 14 14 14
14 14 13 12 11 10 10 9 9 9 9 9 10 10 10 11 11 11 13 15 17 19 21 24 25 24 23 23 24 23 22 21 20 19 19 21 21 20 18 15 13 12 10 9 8 7 5 4 3 3 3 2 3 3 4 6 8 9 11 12 13 13 13 13 14 15 16 17 17 18 18 18 16 14 13 13 13 13 13 13 13 13 13 13 12
17 16 16 15 15 13 12 12 12 12 11 12 12 12 12 13 14 14 14 15 18 21 24 26 25 23 21 20 20 20 18 18 18 18 20 21 20 18 16 14 12 11 10 8 8 7 5 3 3 3 3 2 2 3 4 6 8 10 10 11 13 14 14 14 14 15 15 15 17 18 17 17 15 13 13 13 14 13 13 13 13 12 12 12 12
16 16 17 17 18 18 18 17 16 15 14 14 14 13 13 14 15 15 15 16 19 24 25 24 22 21 19 18 18 17 17 18 19 20 21 21 19 17 15 13 11 10 8 8 8 7 5 4 4 4 3 3 3 4 5 7 9 11 11 11 12 13 14 14 14 15 14 14 16 17 16 16 15 13 12 12 13 13 13 13 13 12 12 12 12
13 13 14 15 16 17 17 17 17 17 17 17 18 17 16 15 15 18 19 21 23 24 23 21 19 18 18 17 18 18 19 20 21 22 21 19 17 15 13 11 9 8 8 8 8 7 5 5 4 4 4 3 4 5 6 8 10 11 12 11 11 13 14 14 13 14 14 14 14 15 16 16 17 15 13 12 12 12 13 13 12 12 12 12 12
12 12 12 12 13 14 14 14 15 17 18 19 21 22 21 19 20 22 23 23 22 21 19 18 17 17 18 19 20 21 21 22 21 20 18 16 14 12 10 8 8 8 8 8 7 6 6 5 4 4 4 4 4 5 7 9 11 12 13 12 10 11 14 14 13 13 13 13 13 14 15 16 17 18 16 13 12 12 12 13 12 12 12 12 12
Wind_Direction
204 210 214 211 207 206 210 211 208 207 209 212 216 217 210 197 194 190 175 167 168 168 174 175 171 167 160 153 142 128 118 107 102 99 100 103 109 118 126 130 131 129 129 128 129 132 133 132 130 128 126 125 124 123 123 123 120 115 112 108 103 97 91 91 99 115 123 105 87 75 65 63 53 51 55 52 49 49 47 45 43 41 39 33 19
206 208 211 210 206 207 211 210 206 206 210 213 217 220 217 208 202 196 186 180 179 178 180 184 183 179 173 172 168 161 157 152 139 126 122 120 119 123 132 139 140 143 145 144 144 144 143 143 140 137 137 135 133 133 133 132 129 124 118 115 111 102 94 96 99 110 125 125 116 96 68 64 56 46 45 45 44 41 35 31 33 31 28 30 25
211 210 210 211 211 212 214 214 211 213 217 216 218 222 221 215 212 207 200 195 191 186 184 186 189 185 181 184 186 185 184 181 176 166 155 152 154 159 165 168 167 165 166 165 166 166 161 157 154 150 150 148 145 145 144 142 138 133 126 118 115 108 98 100 103 108 123 128 127 119 70 56 50 37 31 29 29 30 26 20 21 20 16 19 20
220 218 217 216 219 223 223 223 223 225 224 220 221 224 223 223 225 219 214 209 203 198 192 188 189 189 189 190 191 198 208 210 208 202 198 196 198 209 215 216 217 214 206 198 195 196 194 193 192 180 171 167 163 160 157 154 147 139 133 124 119 111 100 99 103 109 122 131 132 125 84 53 41 27 21 15 11 13 14 10 11 10 6 9 10
228 227 226 225 227 230 232 233 233 231 229 227 227 227 226 228 230 226 221 214 210 207 200 192 191 192 194 193 187 185 195 207 217 222 229 235 239 244 246 244 244 241 238 236 231 228 225 225 227 217 201 192 183 177 176 171 162 156 148 138 132 120 104 99 103 106 114 127 138 130 87 57 33 20 17 12 3 359 1 358 358 360 358 360 1
237 236 236 236 236 238 238 235 231 228 227 230 232 230 229 231 231 226 221 214 210 208 203 195 188 181 180 182 180 181 187 196 208 219 238 254 261 264 265 264 261 257 256 257 252 250 252 248 247 243 227 217 214 208 204 199 189 183 173 160 151 134 113 101 97 97 99 107 121 124 96 44 27 19 9 8 6 359 357 354 349 350 350 352 354
240 242 244 245 245 245 243 237 231 227 228 234 238 234 230 232 235 230 222 216 211 206 199 188 178 174 182 193 197 206 225 234 231 240 270 284 280 276 276 279 280 276 273 273 265 257 254 248 245 247 242 238 244 244 233 221 210 202 195 181 165 147 125 109 101 96 92 94 87 80 78 16 12 6 359 4 7 360 358 354 345 342 343 345 347
244 247 249 251 253 254 251 244 234 226 228 235 238 233 229 231 236 232 224 219 213 208 205 200 195 196 205 224 236 239 249 258 258 268 289 298 297 290 286 287 290 286 283 281 273 262 255 250 244 243 245 243 241 241 237 230 219 209 203 194 179 161 139 122 111 96 80 79 66 33 8 352 3 357 352 0 1 352 353 350 340 337 338 340 341
257 258 259 261 264 264 261 252 234 222 222 228 229 227 227 230 230 227 224 222 218 218 222 221 216 211 213 230 248 249 246 251 259 270 281 292 299 296 289 286 285 283 281 277 273 268 262 257 250 247 253 252 242 237 239 241 234 225 217 207 197 188 165 147 126 94 38 7 12 1 344 338 351 350 344 349 347 341 342 341 334 332 333 334 334
276 276 274 273 273 271 267 255 234 223 223 228 230 229 228 227 223 218 218 217 217 221 225 220 216 221 226 229 236 242 248 256 265 274 280 286 291 289 283 278 276 276 275 273 271 270 268 264 259 257 261 261 248 237 237 241 241 240 237 224 211 200 180 166 152 128 325 339 355 346 333 327 334 338 331 329 332 331 332 333 330 329 331 331 330
300 292 287 282 279 274 264 251 237 234 235 237 236 233 229 226 219 215 215 217 219 225 225 218 220 230 233 228 226 229 239 258 272 282 286 286 285 281 274 269 268 268 271 272 271 270 269 267 266 265 265 265 255 240 234 235 234 232 229 217 206 201 190 177 166 178 275 305 310 305 311 311 312 316 318 320 323 325 326 325 323 327 330 326 323
342 314 301 291 288 283 270 257 248 247 250 249 246 241 236 233 225 222 225 227 230 230 227 226 228 228 225 225 226 225 231 251 268 273 276 278 277 273 267 265 265 265 266 267 267 267 267 267 269 270 270 271 265 248 234 226 221 217 211 202 199 200 197 191 192 236 271 267 261 272 288 299 304 302 307 316 318 318 319 318 317 321 320 313 311
28 1 326 302 296 292 283 273 265 260 260 258 256 251 244 241 238 237 238 237 235 229 225 229 232 226 222 226 231 230 233 244 252 253 255 261 264 263 260 260 262 262 261 261 261 262 264 267 273 275 273 273 266 251 235 218 207 202 200 198 198 198 202 216 252 276 271 261 266 276 280 290 299 297 298 308 314 315 315 316 316 315 310 304 302
46 37 19 345 312 299 290 284 278 271 266 262 262 260 253 249 251 252 249 241 231 222 221 224 227 225 225 228 228 227 227 230 231 231 236 242 242 243 246 251 254 254 255 255 254 255 257 258 263 267 266 263 253 240 225 206 193 188 190 193 193 195 211 250 276 273 262 261 267 269 273 279 286 293 302 310 315 312 309 311 312 309 304 300 298
42 41 37 30 6 332 308 295 286 278 269 262 260 260 260 259 257 255 251 241 228 222 221 221 222 222 220 218 216 215 214 214 216 216 214 209 205 213 233 244 246 247 246 246 245 246 248 243 235 234 238 239 236 221 203 191 185 183 184 186 189 204 236 260 261 255 259 265 262 259 269 281 289 296 305 313 312 307 305 305 305 301 298 298 297
27 26 24 23 18 4 341 315 299 287 270 256 251 251 252 250 248 247 245 239 231 227 225 224 224 221 217 216 215 206 194 194 198 194 186 180 178 192 222 234 234 230 224 213 198 187 184 185 187 196 210 208 182 178 184 184 181 181 181 185 200 223 241 246 245 261 273 269 268 275 282 292 299 301 305 309 305 305 306 302 299 296 294 296 296
12 5 360 1 2 356 346 326 302 287 270 248 238 235 233 229 225 224 225 222 219 219 220 222 223 220 219 221 214 190 173 174 177 175 173 172 171 179 208 215 199 180 157 135 128 128 126 124 126 133 147 150 146 155 170 176 178 181 187 196 207 212 218 234 252 267 275 279 289 299 300 303 305 305 307 307 304 306 305 297 298 302 298 297 297
346 342 341 344 347 349 344 330 305 280 261 243 227 218 214 211 205 202 202 202 200 200 202 201 195 189 190 188 180 171 164 161 165 171 172 170 168 172 187 182 163 148 134 127 126 125 121 112 106 115 132 139 143 150 159 169 179 185 190 191 186 186 210 242 263 274 288 304 308 308 309 308 306 306 305 303 302 303 298 291 296 300 295 292 295
334 328 324 323 326 331 332 328 317 294 267 244 222 212 208 204 196 189 186 184 179 173 169 161 151 145 144 142 144 153 156 157 164 170 172 171 169 172 175 166 153 145 139 135 134 130 124 117 114 122 135 139 143 149 152 158 169 173 174 171 163 177 220 241 248 266 293 307 306 307 308 305 304 304 302 301 301 298 289 282 285 288 287 287 292
334 328 320 315 313 314 316 315 315 309 285 251 225 211 207 205 197 186 181 178 171 163 157 151 143 136 133 133 138 145 151 158 165 169 174 176 172 172 175 167 157 152 148 144 139 133 129 125 125 130 136 139 143 147 147 148 153 159 169 169 169 191 226 240 251 274 292 300 302 305 305 303 303 302 300 299 300 295 286 279 276 276 279 283 286
326 324 321 316 311 309 307 304 302 302 294 265 234 217 210 207 199 189 184 180 171 163 159 152 143 137 134 135 140 146 154 162 167 172 177 177 172 173 177 173 165 158 152 146 140 137 137 136 134 136 140 143 145 146 147 150 158 181 195 197 201 212 220 245 286 301 307 307 306 306 303 301 301 300 298 298 296 292 286 283 278 276 276 279 282
316 314 313 310 307 306 304 300 294 293 294 279 246 225 214 206 199 192 186 179 171 164 159 152 145 140 138 139 142 146 154 162 169 175 178 176 171 171 178 179 171 162 156 150 146 145 146 145 144 145 148 150 152 155 161 169 177 192 198 199 223 262 286 298 306 313 313 308 307 305 302 302 302 302 301 301 298 295 294 291 286 282 278 275 276
311 308 304 302 301 299 298 297 290 280 282 285 264 235 217 204 197 194 187 179 174 169 162 157 152 148 146 145 146 148 152 158 167 174 177 175 169 168 175 179 173 167 163 159 156 154 154 153 150 151 154 156 158 161 166 171 164 151 137 354 325 330 336 330 325 324 316 310 308 306 305 307 307 306 307 306 303 300 297 292 287 283 280 276 274
307 304 301 298 295 293 293 294 289 275 266 274 275 250 225 209 199 194 190 183 178 173 168 163 160 156 152 149 151 153 153 156 163 171 175 174 170 168 171 172 169 167 165 163 161 160 159 157 153 153 155 153 150 150 146 136 111 70 13 340 338 343 345 340 331 325 318 314 312 310 310 311 312 310 308 306 302 298 295 291 287 284 283 281 279
301 300 299 296 293 291 289 288 288 283 269 260 259 248 228 213 201 194 192 188 182 177 172 169 165 159 155 155 156 157 158 160 163 166 169 170 168 166 166 165 164 165 164 164 163 162 158 154 149 148 147 141 135 132 123 101 43 356 337 336 344 346 341 336 331 325 321 318 316 315 314 313 312 308 303 300 299 298 296 294 293 292 290 288 286
292 291 291 291 290 289 287 283 283 286 281 266 253 237 223 216 208 201 199 198 191 184 179 176 173 167 163 163 163 162 163 165 165 165 165 166 164 164 164 163 163 166 164 162 159 155 151 149 146 145 145 143 142 137 116 49 352 337 333 336 346 349 342 339 334 327 321 317 314 313 312 310 306 303 300 299 297 298 298 297 297 296 295 294 293
282 280 279 281 282 282 282 280 277 280 284 281 265 242 228 225 221 213 207 205 202 195 186 180 177 174 172 171 170 169 170 170 169 168 168 168 166 165 165 164 162 162 160 157 155 153 150 149 149 150 151 152 148 134 101 28 355 348 347 350 356 354 343 336 330 322 314 312 312 311 308 306 303 301 300 299 297 297 298 297 295 294 295 295 294
278 275 272 272 272 272 273 275 274 273 276 281 278 256 236 229 228 223 214 203 194 195 193 187 181 178 178 181 181 178 179 180 179 177 176 176 172 169 167 166 165 164 163 160 157 155 151 148 148 148 147 145 137 123 112 97 43 17 24 30 9 350 342 338 333 323 310 308 313 313 308 304 304 303 301 299 299 300 300 297 293 293 295 295 293
278 275 271 267 264 264 266 267 268 268 269 271 276 269 248 234 229 229 225 212 202 200 200 202 205 208 218 223 212 198 193 192 189 185 184 185 183 178 173 171 169 169 169 165 159 154 151 150 149 147 146 147 142 136 129 118 91 84 73 43 12 348 339 334 328 321 314 310 313 315 312 307 306 307 305 302 302 302 300 297 294 293 294 294 291
277 274 269 264 259 257 257 258 259 261 263 263 264 268 263 244 231 229 230 229 230 229 220 217 227 239 246 244 231 215 207 200 189 185 187 187 185 181 175 172 171 168 165 164 161 157 154 151 150 152 155 157 154 151 145 133 127 121 59 7 354 342 337 332 324 320 317 309 305 311 315 310 308 309 308 306 304 304 302 298 294 293 294 293 293
273 272 269 265 261 256 253 252 252 254 257 257 253 249 246 238 229 231 235 236 238 239 234 229 232 239 242 238 226 215 210 201 189 186 185 182 178 174 169 168 168 166 164 163 161 158 155 153 154 158 161 159 157 153 142 134 131 102 2 345 344 342 338 333 326 321 316 307 301 309 316 314 310 309 308 306 305 305 304 301 297 294 294 294 293
264 267 268 268 268 265 258 251 247 247 250 252 246 232 222 219 222 227 232 232 235 238 235 231 231 236 237 230 221 212 204 198 192 188 183 177 173 169 165 165 165 165 165 164 159 155 156 158 158 161 163 160 156 151 142 137 128 24 356 344 342 340 334 331 331 329 322 312 309 313 318 317 314 310 309 308 306 304 303 302 299 297 296 295 292
257 257 260 264 267 267 262 256 248 242 241 244 241 229 217 215 219 221 222 231 248 253 246 235 229 227 228 227 222 213 201 192 189 186 179 173 169 164 161 161 161 162 163 162 156 154 158 162 162 162 164 160 154 154 154 148 85 6 352 342 340 336 332 332 334 330 321 314 314 319 321 321 319 315 313 311 307 305 303 302 300 299 297 296 295
256 252 251 252 257 260 261 258 251 242 236 235 237 235 227 221 220 218 215 217 229 237 241 242 237 231 230 228 221 211 199 186 182 180 175 170 168 163 158 157 159 163 164 161 157 159 162 163 164 162 161 158 157 160 162 139 22 352 346 341 336 332 330 329 327 322 317 315 319 325 326 325 323 320 316 310 307 305 304 303 303 301 299 298 297
259 254 248 246 247 250 254 256 253 247 241 234 231 233 231 225 221 216 206 195 191 193 199 209 223 230 230 224 214 208 197 182 176 176 173 170 168 163 156 155 159 164 167 166 165 166 166 164 163 160 157 159 161 161 154 98 357 345 343 339 334 331 331 327 320 319 322 322 324 328 330 327 324 320 313 304 301 300 301 302 303 302 301 299 297
258 253 248 243 241 240 245 251 251 245 240 237 232 229 229 226 220 213 203 191 185 181 179 182 188 192 192 192 197 203 195 180 175 174 173 171 169 163 157 156 159 165 169 171 171 170 166 162 160 157 156 161 162 158 148 19 344 337 338 336 332 329 326 320 318 328 335 332 328 328 328 324 320 317 308 300 298 297 298 300 302 300 298 298 296
253 248 244 239 235 233 237 245 246 240 237 242 239 230 226 223 217 209 198 187 185 185 186 185 180 172 171 178 186 189 184 178 175 174 172 170 168 165 164 165 166 166 168 170 171 168 162 159 158 155 156 160 156 148 149 344 338 329 329 332 330 328 328 332 341 350 350 343 333 328 324 320 317 313 306 301 300 300 300 302 302 300 298 298 297
252 245 241 236 232 230 234 241 243 237 236 242 241 225 216 213 210 206 201 191 185 183 182 181 175 168 169 175 178 175 172 170 168 167 166 166 166 168 171 170 168 166 166 168 169 165 160 159 158 155 156 158 151 143 329 338 333 325 328 331 328 326 333 341 349 355 353 345 335 330 325 320 316 312 307 303 302 302 304 304 304 302 302 302 301
254 244 240 237 233 229 231 238 238 230 229 236 234 217 206 204 203 200 199 196 191 186 182 178 175 172 171 170 169 167 165 163 162 163 163 164 168 172 171 167 164 165 167 166 164 161 159 160 161 157 156 158 153 146 335 335 328 325 330 332 324 323 334 341 345 350 348 341 334 331 327 321 317 315 312 308 306 307 307 307 306 305 303 302 302
247 238 237 237 231 227 228 233 229 220 219 224 221 205 196 195 195 194 194 195 192 188 181 173 170 172 172 171 170 169 166 164 163 164 164 165 168 170 166 161 160 163 165 162 161 161 160 161 163 162 162 164 166 308 333 333 328 326 329 330 326 331 342 348 351 351 346 339 334 329 325 321 321 319 317 314 312 312 310 308 307 306 303 301 301
240 234 238 235 227 221 223 223 217 213 215 219 215 199 187 185 187 186 185 182 178 173 169 166 168 173 176 176 176 173 168 164 163 164 165 166 166 164 160 156 156 158 161 162 163 162 161 163 167 165 164 169 176 342 336 331 330 328 329 334 339 344 348 352 353 351 345 337 329 324 324 326 326 322 318 317 316 315 313 311 310 309 306 304 304
9 250 244 230 217 210 206 201 199 204 210 211 207 194 181 176 174 173 171 167 163 163 167 170 176 181 179 175 175 173 165 158 157 159 161 162 161 157 154 153 152 154 158 161 162 162 163 168 169 166 166 174 183 347 333 328 332 334 337 345 351 351 350 352 352 349 344 336 328 328 333 335 331 324 318 317 317 318 318 316 314 312 310 310 310
29 35 58 184 184 177 164 157 163 178 187 190 188 181 171 161 156 159 161 158 158 164 169 167 169 175 173 169 170 170 158 152 154 156 157 157 157 155 153 151 150 153 156 158 159 163 166 168 167 169 175 185 304 336 327 329 338 343 349 354 354 350 349 352 351 347 343 340 338 340 341 338 333 326 320 319 321 321 320 320 320 319 317 316 316
38 52 80 107 125 127 116 110 127 152 163 164 160 154 147 139 142 151 151 147 151 163 168 164 161 161 160 159 163 162 155 153 156 158 157 157 159 158 155 154 156 157 157 156 158 162 164 166 171 179 190 216 305 325 327 333 343 351 355 356 352 347 348 350 349 347 345 344 345 345 342 336 333 329 324 323 324 324 323 324 324 324 324 323 321
55 66 80 88 94 99 100 101 112 127 134 132 126 124 120 117 124 134 134 136 147 156 157 154 153 152 151 153 158 160 157 155 156 157 158 161 162 160 159 160 161 160 157 157 159 160 161 165 174 185 198 241 304 323 329 335 344 353 356 355 351 348 348 347 347 347 348 348 349 347 342 337 335 333 330 329 329 328 327 326 325 325 325 326 325
60 69 77 81 82 85 89 94 101 108 113 115 113 110 107 107 113 120 124 131 140 145 144 143 146 148 150 153 156 157 155 154 155 159 164 166 164 163 164 165 163 160 160 161 163 166 167 166 170 181 198 244 306 324 331 337 344 350 353 354 354 352 350 348 346 347 349 351 351 349 346 342 339 335 333 332 331 330 329 328 327 328 327 327 328
60 65 73 78 79 80 83 90 97 100 103 105 106 104 105 108 112 119 126 131 135 136 137 139 143 146 149 151 152 151 150 151 155 162 166 166 166 167 168 165 162 163 167 169 172 177 180 174 176 192 212 257 311 325 336 346 348 346 347 353 356 354 351 350 348 348 351 355 354 352 351 348 343 336 333 333 332 332 332 331 330 331 331 331 332
64 65 69 74 78 81 84 87 93 97 99 101 102 102 105 109 113 117 121 125 127 130 134 137 141 144 146 146 145 146 150 155 160 163 163 163 165 167 166 165 166 170 175 178 182 186 191 194 202 215 231 263 309 324 335 346 348 343 343 350 354 353 352 352 351 351 354 357 357 357 357 352 343 334 332 334 336 336 335 335 334 334 335 337 339
64 67 70 72 76 82 86 88 91 94 96 100 101 101 102 107 111 114 118 120 123 128 132 135 136 138 139 139 142 149 156 160 160 158 157 158 162 164 165 168 172 177 181 186 189 191 197 209 225 236 244 265 303 318 328 339 343 341 341 345 350 352 353 353 353 353 355 358 0 1 1 357 351 341 333 335 340 342 340 339 339 338 338 340 343
60 65 69 71 75 81 85 87 91 93 96 100 104 104 102 103 106 114 119 122 124 127 130 132 134 137 140 144 148 153 156 155 154 153 154 157 160 163 166 171 177 183 187 190 193 197 207 221 234 244 251 268 297 312 323 334 339 339 339 339 344 351 355 355 354 356 357 359 1 3 4 5 5 359 348 341 345 347 346 346 345 344 344 345 346
60 62 65 68 73 78 80 83 88 92 95 99 103 106 106 106 109 115 119 121 123 127 130 133 138 143 147 151 153 153 152 152 151 152 154 156 158 161 166 173 180 186 191 194 198 205 215 226 239 250 258 275 297 310 323 334 338 339 338 335 338 349 355 355 354 357 360 360 1 4 5 7 10 9 3 356 352 350 351 353 352 350 350 350 351
Height
805 807 807 808 810 811 813 815 817 819 820 821 823 824 826 827 829 831 831 832 834 835 837 838 839 841 841 842 844 844 845 846 847 848 848 849 850 850 851 852 852 853 853 854 854 854 855 855 855 856 856 857 857 858 858 858 859 859 860 860 861 861 861 861 862 864 866 867 867 867 867 866 866 865 865 864 863 862 862 861 860 859 858 857 856
805 807 807 808 810 811 813 815 817 818 819 820 822 823 825 827 828 830 830 831 832 834 836 837 839 840 841 842 843 844 845 846 847 848 849 849 850 851 852 852 853 854 854 854 855 855 855 855 856 856 856 857 858 858 858 859 859 860 860 860 861 861 861 862 862 863 865 866 866 866 866 866 865 865 864 863 863 862 861 861 859 859 858 857 856
806 807 808 808 810 812 813 814 816 817 818 819 820 822 824 826 827 829 830 831 832 833 835 836 838 839 841 842 843 843 845 846 847 848 848 849 850 851 852 852 853 854 854 855 855 856 856 856 856 857 857 857 858 858 858 859 860 860 860 860 861 861 861 861 862 862 864 865 865 866 865 865 864 864 863 862 861 861 861 860 859 858 857 856 855
806 807 808 808 810 811 812 814 815 816 817 818 820 821 823 825 826 828 829 830 831 832 834 835 837 838 839 841 842 843 844 846 847 848 848 849 850 851 852 852 853 853 854 855 855 856 856 857 857 857 858 858 858 858 858 859 859 860 860 860 860 860 860 861 861 862 862 863 864 864 864 864 863 863 862 862 861 860 859 859 858 857 856 854 853
806 806 807 808 809 810 811 813 814 815 816 818 819 821 822 824 825 826 828 830 831 832 833 834 836 837 838 840 841 842 843 845 846 847 848 848 849 850 851 851 852 853 854 854 855 856 856 857 858 858 858 858 858 858 859 859 859 859 859 859 860 860 860 860 860 861 861 862 863 863 863 863 863 862 861 861 861 860 859 858 856 855 854 853 852
805 806 807 807 808 809 810 812 813 814 816 817 819 820 822 823 824 825 827 829 830 831 832 833 835 836 838 839 840 841 842 844 845 846 847 847 848 848 849 850 851 852 853 854 854 855 855 856 857 858 858 859 859 859 859 858 858 859 859 859 859 859 859 860 860 861 861 862 862 862 862 862 862 862 861 860 860 859 858 857 856 854 853 851 850
806 806 807 807 808 808 809 810 812 814 816 817 818 819 821 822 823 824 825 827 829 831 831 832 833 835 836 837 838 840 841 842 843 845 846 846 846 847 848 848 849 850 851 853 853 854 854 854 856 857 858 858 858 858 858 858 858 858 858 858 859 859 859 860 860 860 861 861 862 862 862 862 861 861 860 859 858 858 857 856 855 853 852 850 849
807 807 807 807 807 808 808 809 811 813 815 816 817 818 819 821 822 823 824 826 827 829 830 830 831 832 834 836 837 838 839 840 842 843 844 845 845 846 846 847 848 849 850 851 851 852 852 852 853 854 855 855 855 856 856 856 856 857 857 857 858 859 859 859 860 860 860 860 861 861 861 861 860 860 859 858 858 857 856 855 854 852 850 849 848
807 808 808 808 808 808 808 809 811 812 814 815 816 817 818 819 820 821 822 824 825 826 827 827 828 829 831 833 835 837 837 839 840 842 843 844 844 844 845 846 847 848 848 849 849 849 849 850 851 852 852 852 853 854 854 855 855 855 856 856 856 857 858 859 859 859 860 859 860 860 860 860 860 859 859 858 857 856 855 855 853 852 850 848 847
807 807 807 808 808 808 808 809 810 812 813 814 815 815 816 817 818 820 821 822 823 824 824 825 826 827 829 831 833 835 836 837 839 840 841 842 843 843 844 844 845 845 846 847 847 847 847 847 848 849 849 849 850 851 852 853 854 855 855 855 855 856 856 857 858 858 859 859 859 859 859 859 858 858 858 857 856 855 855 854 852 851 849 847 846
807 808 808 808 808 808 809 809 810 811 812 813 814 814 815 816 817 819 820 821 822 822 823 823 823 824 826 828 829 832 834 835 837 838 839 841 842 842 842 842 842 842 843 844 844 845 845 845 845 846 846 846 847 849 850 852 853 854 854 854 854 855 855 856 857 858 858 858 858 858 858 858 857 857 857 856 855 854 854 853 851 850 849 847 845
808 808 808 808 808 808 809 809 810 811 811 812 812 813 814 815 816 817 818 819 820 820 821 822 822 822 824 825 826 827 829 832 834 836 838 840 841 841 841 840 840 840 841 841 842 843 843 844 844 844 844 844 845 846 848 849 851 852 853 853 854 854 854 855 856 857 858 858 857 857 857 857 856 856 856 855 855 854 853 852 851 850 849 847 845
809 809 809 809 809 809 809 809 810 811 811 812 812 812 813 814 815 815 816 817 817 818 819 820 820 821 822 823 823 824 826 829 832 835 837 838 838 839 839 838 838 838 839 839 840 841 841 842 842 842 842 842 843 844 845 847 848 850 851 852 853 853 854 854 855 856 856 856 857 856 856 856 856 855 855 854 854 853 852 851 850 849 848 846 844
811 811 810 810 810 810 809 810 810 810 811 811 812 812 812 813 814 814 815 815 816 817 817 818 819 819 820 821 821 822 824 827 830 833 835 835 836 837 837 837 837 837 838 838 838 839 839 840 840 840 840 840 841 842 843 845 846 848 850 851 852 852 853 853 854 854 855 855 855 855 855 855 855 854 853 853 853 852 851 850 849 848 846 845 842
812 812 811 811 811 811 810 810 810 810 810 811 811 812 812 812 813 813 814 814 815 816 816 816 817 817 818 819 819 821 823 825 828 831 832 833 834 835 835 836 836 836 836 837 837 837 838 838 839 839 839 839 840 840 842 843 845 847 849 850 851 851 852 852 853 853 854 854 854 853 853 853 853 853 852 852 851 851 850 848 847 846 844 842 840
812 812 812 812 812 811 810 810 809 810 810 810 810 811 811 812 811 811 812 812 813 814 814 815 815 816 816 817 818 820 821 824 827 829 830 831 832 833 834 835 835 835 836 836 836 837 837 838 838 838 838 839 839 840 841 843 845 847 848 849 850 851 851 851 852 852 852 852 852 852 852 851 851 851 850 850 849 849 848 847 845 844 842 840 838
812 812 812 812 811 811 810 809 808 808 809 809 810 810 810 811 810 810 810 811 811 812 813 813 813 814 815 816 817 819 820 822 825 827 828 830 831 832 833 833 834 835 835 835 836 836 837 837 838 838 838 839 839 841 842 844 846 847 848 849 849 850 850 851 851 851 851 851 851 851 850 850 850 849 848 848 847 847 847 845 844 843 841 839 836
812 812 811 811 811 810 809 808 808 808 808 808 809 809 810 810 810 810 810 810 810 811 811 812 812 813 814 815 817 819 820 821 824 826 827 828 829 831 831 832 833 834 835 835 836 837 837 837 838 838 838 839 840 842 844 845 846 847 848 848 849 850 850 850 851 850 850 850 849 849 849 848 848 847 847 846 845 845 845 844 843 842 840 838 835
812 811 811 810 810 810 809 808 808 807 807 807 807 808 809 810 810 810 810 810 810 810 811 811 812 813 814 815 817 819 820 821 823 825 826 827 829 830 831 832 833 834 835 836 836 837 837 837 838 839 839 840 841 843 844 845 846 847 848 848 849 850 850 850 850 850 850 849 849 848 847 847 846 845 845 844 843 843 842 842 841 840 838 836 835
812 811 810 809 809 809 808 808 807 807 806 806 806 807 808 809 809 809 809 810 810 810 811 811 812 812 814 815 817 818 820 821 822 824 825 827 828 829 830 831 832 833 835 836 836 837 837 838 839 839 840 841 842 843 844 845 846 847 847 848 849 849 849 849 850 849 849 848 847 847 846 845 844 844 843 842 841 840 840 839 839 838 837 835 833
811 810 809 808 807 807 807 807 806 806 806 806 806 806 807 807 808 808 809 809 809 810 811 811 811 812 813 815 816 818 819 820 822 823 825 826 827 829 830 831 832 833 834 835 836 836 837 838 839 840 841 842 842 843 844 845 845 846 847 847 847 848 848 849 848 848 848 847 846 846 845 844 843 842 841 840 839 838 838 837 836 836 835 833 831
810 809 808 807 806 805 805 805 805 805 805 804 804 805 805 805 806 807 807 808 809 810 810 811 811 812 813 814 815 817 818 820 821 823 824 825 827 828 829 831 831 832 833 834 835 836 837 838 839 840 841 842 842 843 844 844 845 845 846 846 846 847 847 847 847 847 846 846 845 844 843 842 841 840 839 838 837 836 836 835 834 833 832 831 830
809 808 807 806 805 804 803 803 803 804 804 803 803 803 803 804 805 805 806 806 806 808 809 810 811 812 812 813 815 816 817 819 821 823 824 825 826 827 829 830 831 832 832 833 835 836 837 838 839 840 841 841 842 843 843 844 844 845 845 845 845 846 846 846 846 845 845 845 844 843 842 841 840 839 838 837 836 835 833 832 831 830 829 828 827
807 806 805 804 804 802 802 801 801 801 802 802 802 802 802 802 802 803 804 804 804 805 807 808 809 810 811 812 814 815 817 818 820 822 823 824 825 826 828 829 830 831 832 833 834 836 837 837 838 839 840 841 842 842 843 843 844 844 844 844 844 844 845 845 845 844 844 843 843 842 841 840 839 838 837 836 834 832 831 829 828 827 826 824 823
804 804 803 802 802 801 800 799 799 799 799 800 800 800 800 801 801 800 801 801 802 803 805 806 807 808 810 811 813 814 816 817 819 820 822 824 825 826 827 829 830 831 832 833 834 835 836 837 838 839 840 841 841 842 842 843 843 843 843 843 844 844 844 844 844 844 843 843 842 841 840 839 838 837 835 834 832 830 829 828 826 825 824 822 820
802 801 800 800 799 799 798 797 797 797 796 797 798 798 799 800 800 800 801 801 801 801 802 803 805 806 807 809 812 813 815 816 817 819 820 822 824 825 827 828 829 830 831 832 834 835 836 837 837 838 839 840 841 842 842 842 843 843 843 843 844 844 844 844 844 844 843 843 842 840 840 838 837 835 834 832 830 829 827 826 824 823 822 820 818
798 797 797 797 797 796 796 795 795 794 794 794 795 796 797 798 800 800 800 800 801 801 801 801 801 803 806 808 810 811 813 814 815 817 818 820 822 824 826 827 828 829 830 832 833 835 835 836 837 838 839 840 841 841 842 842 843 843 843 844 844 844 844 844 844 843 843 842 841 839 838 837 835 834 832 831 829 827 826 824 823 821 819 818 816
795 794 793 793 793 793 793 793 792 792 792 792 792 793 793 795 796 798 797 797 798 800 801 801 800 802 805 807 808 809 810 811 812 814 815 818 820 822 824 825 827 828 829 831 832 834 835 836 837 838 839 840 841 842 842 842 843 843 844 844 844 844 843 843 843 842 841 841 839 838 837 835 834 832 830 829 827 825 824 822 821 819 817 816 813
792 791 790 789 789 789 789 789 789 789 789 789 789 790 790 790 792 793 794 794 796 797 799 800 801 803 805 806 806 807 807 808 809 811 813 815 817 819 821 823 825 826 828 829 831 833 835 836 837 839 840 841 841 842 842 843 843 843 843 844 844 844 843 843 842 841 840 839 838 837 835 834 832 830 829 827 825 823 822 820 819 817 815 813 811
789 787 786 786 784 784 785 785 786 786 786 786 786 787 787 787 788 789 790 792 794 795 796 797 799 801 802 803 804 804 804 805 806 808 810 813 815 817 819 821 823 825 827 829 831 833 835 837 838 839 840 841 841 842 842 843 843 843 843 843 843 843 842 842 841 840 839 838 836 835 834 832 830 829 827 825 823 821 820 818 816 815 813 811 808
787 785 784 782 781 781 781 781 782 782 782 783 783 784 785 785 786 787 788 790 791 792 792 793 795 797 798 800 801 802 803 804 805 807 809 811 813 815 817 819 821 824 826 828 831 833 835 837 838 839 840 840 841 841 842 842 843 843 843 843 842 842 841 841 840 839 838 836 835 833 832 830 829 827 825 824 822 820 818 816 814 812 810 808 806
783 782 781 780 779 779 778 777 778 779 779 780 780 781 782 783 784 785 786 787 788 789 789 791 792 794 795 797 799 800 801 803 804 806 808 810 812 814 816 818 821 824 826 828 831 833 835 836 838 838 839 840 841 841 841 842 842 842 842 842 842 841 841 840 839 837 836 835 833 832 830 829 827 826 824 822 820 818 816 814 812 810 808 806 804
779 778 777 777 777 776 776 775 775 775 776 777 778 778 779 780 781 782 784 786 787 788 788 789 790 791 793 794 796 798 800 801 803 806 809 811 813 815 817 819 821 824 827 829 831 833 835 836 837 838 839 840 840 841 841 842 842 842 841 841 841 840 840 839 837 836 835 833 832 830 829 827 826 824 822 821 819 817 814 812 810 808 806 804 802
774 773 773 773 773 773 773 772 772 772 773 774 775 776 776 777 778 779 781 783 785 786 786 786 787 789 791 792 795 798 799 800 802 806 809 812 814 815 817 820 823 825 827 829 831 832 834 835 836 837 838 839 840 840 841 841 841 841 841 841 840 840 839 838 836 835 833 832 831 829 827 826 824 823 821 819 817 815 813 810 808 806 804 801 799
769 768 768 768 769 769 770 770 769 769 770 770 771 773 774 775 776 777 778 779 781 782 784 784 786 788 790 792 795 799 800 800 802 805 808 811 813 814 817 820 823 825 827 829 831 832 834 835 836 837 838 839 840 840 840 840 840 841 840 840 840 839 838 836 835 833 832 830 829 827 826 824 823 821 819 817 815 813 811 808 806 804 801 799 797
764 763 763 763 764 765 766 766 766 767 767 768 769 770 771 772 774 775 776 777 778 779 782 783 785 787 789 792 796 799 800 800 802 804 807 809 810 813 816 819 822 824 826 828 830 832 833 835 836 837 838 838 839 840 840 840 840 840 840 840 839 838 836 835 834 832 830 829 827 826 824 823 821 820 817 815 813 811 808 806 804 801 799 797 795
758 758 758 759 760 761 762 763 763 764 764 765 766 767 768 770 772 773 775 776 776 778 780 782 784 787 790 793 796 799 800 802 804 806 807 809 810 812 815 818 820 823 825 828 830 832 833 835 835 836 837 838 839 839 839 839 839 839 839 839 838 837 835 834 832 831 829 828 826 825 823 822 820 818 815 813 811 808 806 804 801 799 797 795 793
753 753 754 755 756 758 759 759 760 761 761 763 764 765 766 767 769 771 773 774 776 778 780 782 784 787 789 792 795 797 799 802 805 807 809 810 811 813 815 817 819 822 825 827 829 831 833 834 835 836 837 837 838 839 839 839 839 839 838 838 836 835 834 832 831 829 828 827 826 824 822 820 818 816 813 811 808 806 803 801 799 796 794 792 790
749 750 751 752 753 755 756 757 758 758 759 761 762 763 764 765 767 769 771 773 775 777 779 781 784 786 788 789 792 796 798 800 802 805 807 809 810 812 814 817 819 822 824 827 829 831 833 834 835 836 836 837 838 838 838 838 838 838 837 836 835 834 833 831 830 828 827 826 825 823 821 819 816 814 811 809 806 804 801 799 796 794 792 790 788
747 748 749 750 751 753 754 756 756 757 758 760 761 762 762 764 766 768 770 772 774 776 778 781 783 785 786 787 788 790 793 796 799 802 804 807 809 812 814 816 819 822 825 827 829 831 832 833 834 835 836 836 837 837 837 838 838 837 836 835 834 833 832 830 829 827 826 825 823 821 819 817 814 812 809 807 804 802 799 796 794 792 790 788 785
747 747 748 749 750 752 753 754 755 756 757 759 760 761 762 763 765 767 769 771 773 775 778 780 782 783 785 786 787 788 789 792 796 799 802 805 808 811 814 817 819 822 825 827 829 830 832 833 834 835 835 836 837 837 837 837 837 836 836 834 833 832 830 829 828 826 825 824 822 820 817 815 812 810 807 804 802 800 797 795 792 790 788 786 783
748 748 748 749 750 752 753 753 754 756 757 759 761 762 762 763 765 767 769 771 773 775 777 779 781 783 784 787 791 793 791 791 795 799 802 806 809 812 815 818 820 823 825 827 828 830 831 832 833 834 835 836 836 836 837 837 836 835 834 833 831 830 829 828 827 825 824 822 820 818 815 813 810 808 805 803 800 798 795 793 790 788 786 784 782
750 750 750 750 751 752 753 754 755 756 757 759 761 762 763 764 766 767 770 772 773 775 778 779 781 784 786 788 792 795 794 795 798 802 805 808 811 813 816 819 821 823 825 827 829 830 831 832 833 834 835 835 835 836 836 836 835 834 833 831 830 829 828 827 825 824 822 820 818 816 813 811 808 806 804 801 799 796 794 791 789 786 784 782 780
752 752 752 752 752 753 754 755 756 757 758 760 762 763 764 765 766 768 770 772 774 776 778 780 782 784 787 789 792 795 796 798 801 804 806 809 812 814 817 819 822 824 825 827 828 829 830 831 832 833 834 834 835 835 835 834 834 833 832 830 829 828 827 826 824 822 821 818 816 814 812 809 807 805 802 800 798 795 792 790 787 785 783 781 778
755 754 754 754 754 755 756 757 758 759 760 762 763 764 765 767 768 770 772 774 775 777 779 781 783 785 788 791 794 796 797 799 802 805 808 810 813 816 818 820 822 824 825 827 828 829 830 831 832 833 833 834 834 834 834 833 833 832 831 830 828 827 826 824 823 821 819 817 815 812 810 808 806 804 801 799 796 794 791 789 786 784 782 779 777
758 757 757 757 757 758 759 759 760 762 763 764 765 766 767 769 771 772 773 775 777 778 780 782 784 786 790 793 795 797 799 800 803 806 809 812 814 816 818 820 822 824 825 827 828 829 830 831 832 832 833 833 834 833 833 833 832 831 830 829 828 826 825 823 822 820 818 816 814 811 809 807 805 802 800 798 796 793 791 788 786 783 781 779 777
762 761 760 760 760 761 762 762 763 764 765 766 767 768 770 771 773 775 776 777 778 779 782 784 786 789 793 796 797 798 800 802 805 808 810 813 815 817 819 820 822 824 825 827 828 829 830 830 831 832 833 833 833 833 832 832 831 830 829 828 827 825 824 822 821 819 817 815 813 811 808 806 804 802 800 798 795 793 790 788 785 783 781 778 776
766 765 765 764 764 764 765 766 766 767 768 769 770 771 773 774 776 777 779 780 781 782 784 787 789 793 796 797 798 800 802 805 807 809 811 813 815 817 819 821 822 824 825 826 828 829 829 830 831 832 832 832 832 832 832 831 830 829 829 827 826 825 823 821 820 818 816 815 813 810 808 806 804 801 799 797 795 792 790 787 785 783 780 778 776
771 770 770 769 769 769 769 769 770 770 771 772 773 774 776 777 778 780 782 783 784 785 788 790 793 795 797 798 800 802 805 807 809 811 812 814 816 818 820 821 823 824 825 826 827 828 829 830 831 831 831 831 831 831 831 830 829 829 828 827 825 824 822 820 819 817 816 814 812 810 808 806 804 802 800 797 795 792 790 787 785 783 781 779 777
775 775 774 774 774 774 774 774 774 774 775 775 776 777 778 780 781 783 785 786 787 789 791 793 795 797 798 800 803 805 807 809 810 811 813 815 817 819 820 822 823 824 825 826 827 828 829 829 830 830 830 830 830 830 830 829 828 828 827 825 824 823 821 820 818 817 815 813 812 810 808 806 804 802 800 797 795 792 790 787 785 783 781 779 777
779 778 778 778 778 778 778 778 778 778 779 779 780 781 782 783 785 786 787 789 790 792 794 796 798 799 801 803 805 807 808 810 811 813 814 816 818 819 821 822 823 824 825 826 827 828 828 829 829 829 830 830 830 829 829 828 827 827 826 824 823 822 821 819 818 816 815 813 812 810 808 806 804 802 799 797 795 792 790 787 785 783 782 780 778